Location: Kalberh�ni
(46.4610°N, 7.2453°E)
Time: 19:12:16
(UTC+00:00)

USA 215 - Visible Passes

Search period start: 21 October 2021 00:00
Search period end: 31 October 2021 00:00
Orbit: 1093 x 1114 km, 123.0° (Epoch: 17 October)

Date Brightness Start Highest point End Pass type
(mag) Time Alt. Az. Time Alt. Az. Time Alt. Az.
21 Oct 4.0 17:47:15 10° NE 17:53:27 48° NNW 17:59:41 10° W visible
21 Oct 4.2 19:34:27 33° NNE 19:35:39 35° N 19:41:27 10° WNW visible
21 Oct 5.2 21:21:48 22° NW 21:21:48 22° NW 21:24:00 10° NW visible
22 Oct 3.6 17:04:27 10° NE 17:10:56 69° NNW 17:17:27 10° WSW visible
22 Oct 4.2 18:50:00 23° NE 18:53:23 38° N 18:59:19 10° WNW visible
22 Oct 4.6 20:37:22 31° NNW 20:37:22 31° NNW 20:41:23 10° NW visible
23 Oct 4.0 18:05:34 14° NE 18:11:01 48° NNW 18:17:13 10° W visible
23 Oct 4.3 19:52:55 35° N 19:53:12 35° N 19:59:00 10° WNW visible
23 Oct 5.5 21:40:16 16° NW 21:40:16 16° NW 21:41:34 10° NW visible
24 Oct 3.5 17:22:00 10° NE 17:28:30 68° NNW 17:34:59 10° WSW visible
24 Oct 4.2 19:08:29 29° NNE 19:10:56 38° N 19:16:51 10° WNW visible
24 Oct 5.0 20:55:51 26° NW 20:55:51 26° NW 20:58:55 10° NW visible
25 Oct 4.0 18:24:04 19° NE 18:28:34 48° NNW 18:34:46 10° W visible
25 Oct 4.4 20:11:25 34° NNW 20:11:25 34° NNW 20:16:33 10° WNW visible
25 Oct 5.8 21:58:46 12° NW 21:58:46 12° NW 21:59:06 10° NW visible
26 Oct 3.5 17:39:39 10° NE 17:46:03 68° NNW 17:52:31 10° WSW visible
26 Oct 4.2 19:27:00 34° NNE 19:28:29 38° N 19:34:24 10° WNW visible
26 Oct 5.3 21:14:21 20° NW 21:14:21 20° NW 21:16:29 10° NW visible
27 Oct 3.3 16:56:45 10° NE 17:03:19 78° SE 17:09:53 10° SW visible
27 Oct 3.9 18:42:36 25° NE 18:46:07 48° NNW 18:52:19 10° W visible
27 Oct 4.7 20:29:58 31° NNW 20:29:58 31° NNW 20:34:06 10° WNW visible
28 Oct 3.5 17:58:12 16° NE 18:03:36 68° NNW 18:10:05 10° WSW visible
28 Oct 4.2 19:45:33 38° N 19:46:02 38° N 19:51:56 10° WNW visible
28 Oct 5.6 21:32:55 15° NW 21:32:55 15° NW 21:34:01 10° NW visible
29 Oct 3.3 17:14:18 10° NE 17:20:52 78° SE 17:27:27 10° SW visible
29 Oct 3.9 19:01:11 33° NNE 19:03:40 47° NNW 19:09:52 10° W visible
29 Oct 5.0 20:48:32 25° NW 20:48:32 25° NW 20:51:38 10° WNW visible
30 Oct 3.5 18:16:49 23° NE 18:21:09 67° NNW 18:27:37 10° WSW visible
30 Oct 4.3 20:04:11 37° NNW 20:04:11 37° NNW 20:09:29 10° WNW visible
30 Oct 5.9 21:51:32 10° NW 21:51:32 10° NW 21:51:34 10° NW visible
